7 * 24
多渠道服务支持
STARLINK-37103(NORAD编号68267)是SpaceX星链互联网星座中的一颗低轨卫星,于近年发射入轨,运行在距离地面约560公里的近地轨道,为全球提供宽带互联网通信服务。2026年3月底,该卫星在轨道运行时突发异常,与地面失去通信联系。经地面雷达观测机构LeoLabs分析,此次异常大概率由卫星内部能量源问题引发,而非外部碰撞导致。卫星解体产生的数十块碎片将在数周内逐渐再入大气层焚毁,目前SpaceX仍在对事故原因开展调查,这也是近两年内星链星座发生的第二起类似解体事件。
美国
(US)
| 数据来源 | 国际轨道数据 |
| 星历时间: | 2026-04-14T21:08:22+0800 7小时前 查看轨道信息 |
| 半长轴: | 6706.121km |
| 偏心率: | 0.0001213 |
| 轨道倾角: | 53.158° |
| 近地点辐角 | 70.530° |
| 升交点赤经 | 157.548° |
| 平近点角 | 289.585° |
| 近地点: | 327.17km |
| 远地点: | 328.798km |
| 周期: | 91.089分钟 |
| 每日圈数: | 15.808685 |